Sitka, Alaska, United States (99835)
Lat: 57.05N, Lon: 135.33W
Wx Zone: AKZ023
Local Info
Past Weather Observations for Today

NOTE: This archive is for the closest National Weather Service station to Sitka. Information may differ from the station used for current weather conditions.

Time Weather Temperature Dewpoint Humidity Pressure Winds Precip Visibility
16:53
Partly Cloudy
48°F / 9°C 30°F / -1°C 50% 29.71 in
(1006 mb)
ESE 12.7 mph
(ESE 20 kph)
- 10SM
15:53
Partly Cloudy
48°F / 9°C 30°F / -1°C 50% 29.74 in
(1007 mb)
SE 9.2 mph
(SE 15 kph)
- 10SM
14:53
Mostly Cloudy
48°F / 9°C 30°F / -1°C 50% 29.77 in
(1008 mb)
SE 12.7 mph
(SE 20 kph)
- 10SM
13:53
Partly Cloudy
46°F / 8°C 36°F / 2°C 66% 29.77 in
(1008 mb)
SE 5.8 mph
(SE 9 kph)
0.00 in
(0.00 mm)
10SM
12:53
Mostly Cloudy
46°F / 8°C 36°F / 2°C 66% 29.8 in
(1009 mb)
SE 3.5 mph
(SE 6 kph)
0.00 in
(0.00 mm)
10SM
12:00
Mostly Cloudy
Light Rain
45°F / 7°C 37°F / 3°C 76% 29.8 in
(1009 mb)
S 13.8 mph
(S 22 kph)
0.00 in
(0.00 mm)
10SM
11:53
Mostly Cloudy
Light Rain
45°F / 7°C 37°F / 3°C 76% 29.8 in
(1009 mb)
S 11.5 mph
(S 19 kph)
0.00 in
(0.00 mm)
10SM
10:53
Mostly Cloudy
46°F / 8°C 37°F / 3°C 71% 29.8 in
(1009 mb)
Variable 3.5 mph
(Variable 6 kph)
0.01 in
(0.25 mm)
10SM
10:07
Mostly Cloudy
Light Rain
43°F / 6°C 37°F / 3°C 81% 29.8 in
(1009 mb)
SSE 11.5 mph
(SSE 19 kph)
0.01 in
(0.25 mm)
4SM
09:53
Overcast
45°F / 7°C 36°F / 2°C 71% 29.8 in
(1009 mb)
S 9.2 mph
(S 15 kph)
- 10SM
08:53
Mostly Cloudy
45°F / 7°C 36°F / 2°C 71% 29.77 in
(1008 mb)
ESE 9.2 mph
(ESE 15 kph)
0.01 in
(0.25 mm)
10SM
07:53
Mostly Cloudy
Light Rain
43°F / 6°C 36°F / 2°C 76% 29.77 in
(1008 mb)
SE 10.4 mph
(SE 17 kph)
0.00 in
(0.00 mm)
10SM
07:45
Mostly Cloudy
43°F / 6°C 37°F / 3°C 81% 29.77 in
(1008 mb)
ESE 8.1 mph
(ESE 13 kph)
- 10SM
07:00
Mostly Cloudy
43°F / 6°C 37°F / 3°C 81% 29.77 in
(1008 mb)
E 8.1 mph
(E 13 kph)
- 10SM
06:53
Mostly Cloudy
41°F / 5°C 37°F / 3°C 87% 29.77 in
(1008 mb)
E 6.9 mph
(E 11 kph)
0.00 in
(0.00 mm)
10SM
06:42
Mostly Cloudy
41°F / 5°C 37°F / 3°C 87% 29.77 in
(1008 mb)
E 6.9 mph
(E 11 kph)
0.00 in
(0.00 mm)
10SM
06:23
Mostly Cloudy
41°F / 5°C 37°F / 3°C 87% 29.77 in
(1008 mb)
SE 8.1 mph
(SE 13 kph)
0.00 in
(0.00 mm)
10SM
05:53
Overcast
Light Rain
41°F / 5°C 37°F / 3°C 87% 29.77 in
(1008 mb)
SE 4.6 mph
(SE 7 kph)
0.01 in
(0.25 mm)
5SM
05:44
Overcast
41°F / 5°C 37°F / 3°C 87% 29.74 in
(1007 mb)
ESE 8.1 mph
(ESE 13 kph)
- 10SM
04:53
Overcast
41°F / 5°C 37°F / 3°C 87% 29.74 in
(1007 mb)
E 9.2 mph
(E 15 kph)
0.01 in
(0.25 mm)
10SM
04:07
Overcast
Light Rain
39°F / 4°C 37°F / 3°C 93% 29.71 in
(1006 mb)
ENE 4.6 mph
(ENE 7 kph)
0.00 in
(0.00 mm)
10SM
03:53
Overcast
39°F / 4°C 37°F / 3°C 93% 29.71 in
(1006 mb)
Variable 4.6 mph
(Variable 7 kph)
0.00 in
(0.00 mm)
10SM
03:40
Overcast
41°F / 5°C 37°F / 3°C 87% 29.71 in
(1006 mb)
Variable 5.8 mph
(Variable 9 kph)
0.00 in
(0.00 mm)
10SM
03:07
Overcast
Light Rain
43°F / 6°C 39°F / 4°C 87% 29.71 in
(1006 mb)
SSE 9.2 mph
(SSE 15 kph)
0.00 in
(0.00 mm)
10SM
02:53
Overcast
Light Rain
41°F / 5°C 39°F / 4°C 93% 29.68 in
(1005 mb)
S 5.8 mph
(S 9 kph)
0.06 in
(1.52 mm)
10SM
02:36
Overcast
Light Rain
41°F / 5°C 39°F / 4°C 93% 29.68 in
(1005 mb)
SE 9.2 mph
(SE 15 kph)
0.05 in
(1.27 mm)
7SM
02:11
Overcast
Rain
41°F / 5°C 39°F / 4°C 93% 29.68 in
(1005 mb)
SE 8.1 mph
(SE 13 kph)
0.03 in
(0.76 mm)
6SM
01:53
Overcast
Light Rain
41°F / 5°C 39°F / 4°C 93% 29.65 in
(1004 mb)
ESE 6.9 mph
(ESE 11 kph)
0.10 in
(2.54 mm)
5SM
01:44
Overcast
Light Rain
41°F / 5°C 39°F / 4°C 93% 29.65 in
(1004 mb)
ESE 5.8 mph
(ESE 9 kph)
0.08 in
(2.03 mm)
5SM
01:17
Overcast
Rain
41°F / 5°C 39°F / 4°C 93% 29.65 in
(1004 mb)
ESE 5.8 mph
(ESE 9 kph)
0.05 in
(1.27 mm)
6SM
01:14
Overcast
Rain
41°F / 5°C 39°F / 4°C 93% 29.65 in
(1004 mb)
SE 5.8 mph
(SE 9 kph)
0.04 in
(1.02 mm)
6SM
00:53
Overcast
Rain
41°F / 5°C 39°F / 4°C 93% 29.65 in
(1004 mb)
SE 9.2 mph
(SE 15 kph)
0.09 in
(2.29 mm)
5SM
00:39
Overcast
Light Rain
43°F / 6°C 39°F / 4°C 87% 29.62 in
(1003 mb)
SE 8.1 mph
(SE 13 kph)
0.07 in
(1.78 mm)
4SM
Time Weather Temperature Dewpoint Humidity Pressure Winds Precip Visibility


Weather for websites

WeatherForYou.com, LLC is not responsible for any damages or problems caused by this service. Current weather conditions are obtained from the closest station including government and personal stations which may have varying degrees of accuracy. Weather forecasts are derived from the NOAA NDFD. Like all things, this site belongs to Jesus Christ... He just trusts me to maintain it. If you have any questions or comments email webmaster@weatherforyou.com

Copyright © 2014, WeatherForYou.com LLC. All rights reserved.